Terminal Aerodrome Forecast
Issued by NWS Atlanta, GA

Home | Current Version | Previous Version | Text Only | Print | Product List | Glossary On
Versions: 1 2 3 4 5 6 7 8 9 10 11 12 13 14 15 16 17 18 19 20 21 22 23 24 25 26 27 28 29 30 31 32 33 34 35 36 37 38 39 40 41 42 43
000
FTAK31 PAJN 242300
TAFAHN
TAF
PAHN 242336Z 2500/2524 30008KT P6SM -SHRA BKN025 OVC040
     FM250600 30007KT P6SM -SHRASN BKN025 OVC040
     FM251500 30007KT P6SM VCSH SCT025 OVC040
      AMD LTD TO CLD VIS AND WIND=

USA.gov is the U.S. government's official web portal to all federal, state and local government web resources and services.